Showing default

HULIANWANG DIGUI-128, 67236

Orbit data source: Space-Track

HULIANWANG DIGUI-128, 67236 is a payload satellite owned by Zhongguo Xingwang (CN) in LEO that was launched on Thu, 25 Dec 2025 UTC via a CHANG ZHENG 8A launch vehicle from the Wenchang Satellite Launch Center (WSC). Payload-class satellites include a variety of spacecraft equipped with specific instruments for various scientific and technological missions. These include communications satellites like Starlink; space stations such as the ISS; scientific satellites like the Hubble; Earth observation satellites from companies like Planet Labs, Umbra, and HawkEye 360; GPS; miniature CubeSats for education and research; and military/defense satellites.

Loading next visibility...
Identifier
67236, 2025-311A
Orbit
LEO
Country
Flag of CNCN / PRC
Related business
Manufacturer
CAST
Mission
Operational Civil Communications
Bus & Motor
XINGWANG C, Unknown motor
Mass
~700 kg wet, ~700 kg dry
Launch date (UTC)
2025-12-25 (6 months ago)
Launch vehicle
CHANG ZHENG 8A
Launch site
Wenchang Satellite Launch Center (WSC)
Object type
Payload
Rocket body
Debris
Shape & HBR
Box + 2 Pan, 14.5 m
Radar Cross Section
5.935 m², Large (>1 m²)

Expand to show TLE details & history
Last TLE update: 21 hours ago

TLE from 21 hours ago
0 HULIANWANG DIGUI-128
1 67236U 25311A   26163.22497243 -.00000143  00000-0 -41590-4 0  9990
2 67236  50.0078 133.3436 0001053 312.4133  47.6650 13.29321677 22682
Epoch: 2026-06-12T05:23Z
TLE epoch observation values (Epoch: 2026-06-12T05:23:57.617Z)
Latitude
-0.00004°
Longitude
151.79602°
Altitude
1,149.296 km
Speed
7.28 km/s
True Right ascension
08h 53m 22s
True Declination
0° 00' 00"
Sunlit
Object was in daylight at epoch
Visualization orbit readout
Latitude
Unknown
Longitude
Unknown
Altitude
Unknown
Speed
Unknown
Apparent Right ascension
Unknown
Apparent Declination
Unknown
Sunlit
N/A
Visualization observer readout
Local Sidereal Time
12:46:02
Azimuth
Unknown
Elevation
Unknown
Doppler factor
Unknown
Orbital elements
Apogee altitude
1,150.82 km
Perigee altitude
1,149.234 km
Semi-major axis
7,528.164 km
Eccentricity
0.00011
Inclination
50.0078°
RAAN
133.3436°
Arg. of periapsis
312.4133°
True anomaly
47.67392°
Mean anomaly
47.665°
Eccentric anomaly
47.66946°
Mean motion
3.32284 °/min
Orbital period
108.34 mins
BSTAR
-0.00004159
Loading maneuver chart data...
Computing Atmospheric mass density...
Loading historical data...
Loading historical data...
Loading historical data...
Loading historical data...
Loading historical data...
Loading historical data...
Loading historical data...

Documentation

Showing up to 5 results
|